Weather History for KSPI - March, 2013

Change the Weather History Date:

Saturday, March 2, 2013

  Actual Average Record
Temperature  
Mean Temperature 24 °F 37 °F  
Max Temperature 32 °F 46 °F 76 °F (1976)
Min Temperature 16 °F 28 °F -2 °F (1980)
Degree Days  
Heating Degree Days 41 28  
Month to date heating degree days 77 57  
Since 1 July heating degree days 3986 4328  
Cooling Degree Days 0 0  
Month to date cooling degree days 0 0  
Year to date cooling degree days 0 0  
Moisture  
Dew Point 16 °F    
Average Humidity 71    
Maximum Humidity 88    
Minimum Humidity 53    
Precipitation  
Precipitation 0.00 in 0.07 in 1.42 in (1940)
Month to date precipitation 0.05 0.15  
Year to date precipitation 5.77 3.78  
Snow  
Snow 0.00 in 0.10 in 6.30 in (1978)
Month to date snowfall 0.7 0.2  
Since 1 July snowfall 14.2 18.3  
Snow Depth 3.00 in    
Sea Level Pressure  
Sea Level Pressure 30.23 in    
Wind  
Wind Speed 10 mph (NNW)    
Max Wind Speed 20 mph    
Max Gust Speed 24 mph    
Visibility 10 miles    
Events      
T = Trace of Precipitation, MM = Missing Value Source: NWS Daily Summary

Daily Weather History Graph

Daily Weather History Graph

Search for Another Location

Airport or City:

Trip Planner

Search our weather history database for the weather conditions in past years. The results will help you decide how hot, cold, wet, or windy it might be!

Date:

Astronomy

Mar. 02, 2013 Rise Set
Actual Time 6:30 AM CST 5:52 PM CST
Civil Twilight 6:02 AM CST 6:19 PM CST
Nautical Twilight 5:31 AM CST 6:50 PM CST
Astronomical Twilight 5:00 AM CST 7:21 PM CST
Moon 11:31 PM CST 8:58 AM CST
Length of Visible Light 12h 16m
Length of Day
11h 22m
Waning Gibbous, 74% of the Moon is Illuminated
Mar 2
Waning Gibbous
Mar 4
Last Quarter
Mar 11
New
Mar 19
First Quarter
Mar 27
Full

Hourly Weather History & Observations

Time (CST) Temp. Windchill Dew Point Humidity Pressure Visibility Wind Dir Wind Speed Gust Speed Precip Events Conditions
12:52 AM 25.0 °F 16.3 °F 21.0 °F 85% 30.22 in 10.0 mi NNW 8.1 mph - N/A   Overcast
1:52 AM 25.0 °F 15.5 °F 21.0 °F 85% 30.22 in 10.0 mi North 9.2 mph - N/A   Overcast
2:52 AM 25.0 °F 14.8 °F 21.0 °F 85% 30.21 in 10.0 mi NNW 10.4 mph - N/A   Overcast
3:52 AM 25.0 °F 16.3 °F 19.9 °F 81% 30.20 in 10.0 mi NNW 8.1 mph - N/A   Overcast
4:08 AM 24.8 °F 16.9 °F 19.4 °F 80% 30.18 in 10.0 mi NNW 6.9 mph - N/A   Overcast
4:52 AM 26.1 °F 16.2 °F 18.0 °F 71% 30.21 in 10.0 mi NNW 10.4 mph - N/A   Overcast
5:52 AM 26.1 °F 17.6 °F 19.0 °F 75% 30.21 in 10.0 mi NNW 8.1 mph - N/A   Overcast
6:52 AM 25.0 °F 14.8 °F 18.0 °F 75% 30.23 in 10.0 mi NNW 10.4 mph - N/A   Overcast
7:52 AM 26.1 °F 15.6 °F 18.0 °F 71% 30.24 in 10.0 mi NNW 11.5 mph - N/A   Overcast
8:52 AM 27.0 °F 16.1 °F 17.1 °F 66% 30.25 in 10.0 mi NNW 12.7 mph - N/A   Overcast
9:52 AM 28.0 °F 16.5 °F 18.0 °F 66% 30.25 in 10.0 mi NNW 15.0 mph - N/A   Overcast
10:52 AM 30.0 °F 19.5 °F 17.1 °F 59% 30.25 in 10.0 mi North 13.8 mph - N/A   Clear
11:52 AM 30.9 °F 20.7 °F 15.1 °F 52% 30.25 in 10.0 mi North 13.8 mph - N/A   Clear
12:52 PM 30.9 °F 19.4 °F 15.1 °F 52% 30.24 in 10.0 mi NNW 17.3 mph 21.9 mph N/A   Mostly Cloudy
1:52 PM 30.0 °F 19.5 °F 16.0 °F 56% 30.22 in 10.0 mi North 13.8 mph - N/A   Mostly Cloudy
2:52 PM 30.9 °F 20.2 °F 15.1 °F 52% 30.22 in 10.0 mi NNW 15.0 mph - N/A   Clear
3:52 PM 30.0 °F 20.5 °F 15.1 °F 54% 30.22 in 10.0 mi NNW 11.5 mph - N/A   Clear
4:52 PM 28.9 °F 18.6 °F 14.0 °F 54% 30.22 in 10.0 mi NNW 12.7 mph - N/A   Clear
5:52 PM 27.0 °F 18.0 °F 12.0 °F 53% 30.24 in 10.0 mi NNW 9.2 mph - N/A   Clear
6:52 PM 24.1 °F 16.0 °F 12.0 °F 60% 30.25 in 10.0 mi NW 6.9 mph - N/A   Clear
7:52 PM 21.9 °F 12.5 °F 15.1 °F 75% 30.25 in 10.0 mi NW 8.1 mph - N/A   Clear
8:52 PM 19.9 °F 12.1 °F 14.0 °F 78% 30.25 in 10.0 mi WNW 5.8 mph - N/A   Clear
9:52 PM 19.0 °F 13.9 °F 14.0 °F 81% 30.25 in 10.0 mi NW 3.5 mph - N/A   Clear
10:52 PM 19.9 °F - 12.9 °F 74% 30.24 in 10.0 mi Calm Calm - N/A   Clear
11:52 PM 17.1 °F 11.7 °F 12.0 °F 81% 30.23 in 10.0 mi WNW 3.5 mph - N/A   Clear